STARLINK-32809, 62849

Orbit data source: Space-Track

STARLINK-32809, 62849 is a payload satellite owned by SpaceX/Seattle (US) in LEO that was launched on Mon, 27 Jan 2025 UTC via an FALCON 9 launch vehicle from the Air Force Eastern Test Range (AFETR). Payload-class satellites include a variety of spacecraft equipped with specific instruments for various scientific and technological missions. These include communications satellites like Starlink; space stations such as the ISS; scientific satellites like the Hubble; Earth observation satellites from companies like Planet Labs, Umbra, and HawkEye 360; GPS; miniature CubeSats for education and research; and military/defense satellites.

Loading next visibility...
Identifier
62849, 2025-019W
Orbit
LEO
Country
Flag of USUS
Related business
Manufacturer
SpaceX/Seattle
Mission
Operational Commercial Communications
Bus & Motor
STARLINK V2M, Unknown motor
Mass
730 kg wet, ~700 kg dry
Launch date (UTC)
2025-01-27 (9 months ago)
Launch vehicle
FALCON 9
Launch site
Air Force Eastern Test Range (AFETR)
Object type
Payload
Rocket body
Debris
Shape & HBR
Box + 2 Pan, 17.7 m
Radar Cross Section
33.884 m², Large (>1 m²)

Expand to show TLE details & history
Last TLE update: 17 hours ago

TLE from 17 hours ago
0 STARLINK-32809
1 62849U 25019W   25303.17302528  .00033286  00000-0  12126-2 0  9993
2 62849  43.0089 105.7665 0002251 267.9199  92.1395 15.27608069 42298
Epoch: 2025-10-30T04:09Z
TLE epoch observation values (Epoch: 2025-10-30T04:09:09.384Z)
Latitude
-0.00001°
Longitude
4.74178°
Altitude
482.799 km
Speed
7.626 km/s
True Right ascension
07h 03m 03s
True Declination
0° 00' 00"
Sunlit
Object was in daylight at epoch
Visualization orbit readout
Latitude
Unknown
Longitude
Unknown
Altitude
Unknown
Speed
Unknown
Apparent Right ascension
Unknown
Apparent Declination
Unknown
Sunlit
N/A
Visualization observer readout
Local Sidereal Time
16:33:39
Azimuth
Unknown
Elevation
Unknown
Doppler factor
Unknown
Orbital elements
Apogee altitude
486.454 km
Perigee altitude
483.364 km
Semi-major axis
6,863.046 km
Eccentricity
0.00023
Inclination
43.0089°
RAAN
105.7665°
Arg. of periapsis
267.9199°
True anomaly
92.16528°
Mean anomaly
92.1395°
Eccentric anomaly
92.15239°
Mean motion
3.8174 °/min
Orbital period
94.3 mins
BSTAR
0.0012126
Loading maneuver chart data...
Computing Atmospheric mass density...
Loading historical data...
Loading historical data...
Loading historical data...
Loading historical data...
Loading historical data...
Loading historical data...
Loading historical data...

Documentation

Showing up to 5 results
|